| time (UTC) | temp F | wind direction | speed MPH | gust MPH | rain 1hr in | rain 24hr in | rain mn in | humidity % | barometer mb |
| 20260507093409 | 48 | 294 | 4.0 | 4.0 | 0.00 | 0.00 | 0.00 | 84 | 1006.2 |
| 20260507092907 | 48 | 295 | 2.0 | 3.0 | 0.00 | 0.00 | 0.00 | 84 | 1006.2 |
| 20260507092403 | 48 | 139 | 0.0 | 1.0 | 0.00 | 0.00 | 0.00 | 83 | 1006.4 |
| 20260507091900 | 48 | 345 | 3.0 | 4.0 | 0.00 | 0.00 | 0.00 | 82 | 1006.1 |
| 20260507091356 | 48 | 298 | 1.0 | 2.0 | 0.00 | 0.00 | 0.00 | 82 | 1006.4 |
| 20260507090852 | 48 | 220 | 1.0 | 2.0 | 0.00 | 0.00 | 0.00 | 82 | 1006.5 |
| 20260507090348 | 48 | 255 | 2.0 | 3.0 | 0.00 | 0.00 | 0.00 | 81 | 1006.5 |
| 20260507085845 | 48 | 172 | 1.0 | 2.0 | 0.00 | 0.00 | 0.00 | 80 | 1006.5 |
| 20260507085342 | 48 | 153 | 0.0 | 1.0 | 0.00 | 0.00 | 0.00 | 80 | 1006.4 |
| 20260507084840 | 48 | 122 | 0.0 | 0.0 | 0.00 | 0.00 | 0.00 | 80 | 1006.2 |
| 20260507084335 | 48 | 32 | 1.0 | 4.0 | 0.00 | 0.00 | 0.00 | 79 | 1006.1 |
| 20260507083833 | 48 | 233 | 2.0 | 4.0 | 0.00 | 0.00 | 0.00 | 81 | 1006.1 |
| 20260507083330 | 48 | 170 | 2.0 | 2.0 | 0.00 | 0.00 | 0.00 | 82 | 1006.1 |
| 20260507082826 | 48 | 170 | 1.0 | 2.0 | 0.00 | 0.00 | 0.00 | 82 | 1005.9 |
| 20260507082321 | 48 | 144 | 0.0 | 2.0 | 0.00 | 0.00 | 0.00 | 83 | 1006.0 |
| 20260507081819 | 48 | 315 | 2.0 | 3.0 | 0.00 | 0.00 | 0.00 | 82 | 1005.7 |
| 20260507081315 | 48 | 185 | 1.0 | 2.0 | 0.00 | 0.00 | 0.00 | 82 | 1005.6 |
| 20260507080812 | 48 | 317 | 1.0 | 2.0 | 0.00 | 0.00 | 0.00 | 82 | 1005.7 |
| 20260507080308 | 49 | 149 | 1.0 | 7.0 | 0.00 | 0.00 | 0.00 | 82 | 1005.5 |
| 20260507075803 | 49 | 133 | 1.0 | 3.0 | 0.00 | 0.00 | 0.00 | 81 | 1005.4 |
| 20260507075259 | 49 | 314 | 2.0 | 3.0 | 0.00 | 0.00 | 0.00 | 81 | 1006.0 |
| 20260507074756 | 49 | 249 | 2.0 | 4.0 | 0.00 | 0.00 | 0.00 | 81 | 1006.2 |
| 20260507074254 | 49 | 144 | 0.0 | 2.0 | 0.00 | 0.00 | 0.00 | 81 | 1006.1 |
| 20260507073751 | 49 | 204 | 0.0 | 3.0 | 0.00 | 0.00 | 0.00 | 80 | 1005.9 |
| 20260507073247 | 49 | 328 | 3.0 | 4.0 | 0.00 | 0.00 | 0.00 | 80 | 1005.7 |
| 20260507072745 | 49 | 15 | 6.0 | 10.0 | 0.00 | 0.00 | 0.00 | 80 | 1005.9 |
| 20260507072242 | 49 | 241 | 0.0 | 2.0 | 0.00 | 0.00 | 0.00 | 81 | 1005.3 |
| 20260507071740 | 49 | 164 | 1.0 | 6.0 | 0.00 | 0.00 | 0.00 | 80 | 1005.3 |
| 20260507071236 | 49 | 301 | 3.0 | 8.0 | 0.00 | 0.00 | 0.00 | 81 | 1005.2 |
| 20260507070733 | 49 | 215 | 1.0 | 4.0 | 0.00 | 0.00 | 0.00 | 82 | 1005.5 |
| 20260507070230 | 49 | 214 | 1.0 | 2.0 | 0.00 | 0.00 | 0.00 | 83 | 1005.4 |
| 20260507065726 | 49 | 349 | 2.0 | 2.0 | 0.00 | 0.00 | 0.00 | 84 | 1005.4 |
| 20260507065223 | 49 | 345 | 2.0 | 8.0 | 0.00 | 0.00 | 0.00 | 85 | 1005.4 |
| 20260507064720 | 49 | 203 | 2.0 | 9.0 | 0.00 | 0.00 | 0.00 | 86 | 1005.2 |
| 20260507064220 | 49 | 306 | 4.0 | 6.0 | 0.00 | 0.00 | 0.00 | 87 | 1005.2 |
| 20260507063716 | 49 | 197 | 1.0 | 2.0 | 0.00 | 0.00 | 0.00 | 87 | 1005.4 |
| 20260507063213 | 49 | 85 | 0.0 | 2.0 | 0.00 | 0.00 | 0.00 | 87 | 1005.3 |
| 20260507062710 | 49 | 107 | 0.0 | 0.0 | 0.00 | 0.00 | 0.00 | 86 | 1005.1 |
| 20260507062208 | 50 | 84 | 1.0 | 2.0 | 0.00 | 0.00 | 0.00 | 86 | 1005.3 |
| 20260507061705 | 50 | 18 | 0.0 | 1.0 | 0.00 | 0.00 | 0.00 | 86 | 1005.4 |
| 20260507061203 | 50 | 212 | 1.0 | 3.0 | 0.00 | 0.00 | 0.00 | 85 | 1005.6 |
| 20260507060701 | 50 | 326 | 1.0 | 2.0 | 0.00 | 0.00 | 0.00 | 85 | 1005.3 |
| 20260507060157 | 50 | 308 | 1.0 | 2.0 | 0.00 | 0.00 | 0.00 | 85 | 1005.4 |
| 20260507055653 | 50 | 357 | 1.0 | 1.0 | 0.00 | 0.00 | 0.00 | 85 | 1005.5 |
| 20260507055149 | 50 | 149 | 0.0 | 2.0 | 0.00 | 0.00 | 0.00 | 85 | 1005.7 |
| 20260507054645 | 50 | 341 | 2.0 | 3.0 | 0.00 | 0.00 | 0.00 | 85 | 1006.1 |
| 20260507054142 | 50 | 327 | 2.0 | 3.0 | 0.00 | 0.00 | 0.00 | 85 | 1005.6 |
| 20260507053640 | 50 | 251 | 1.0 | 4.0 | 0.00 | 0.00 | 0.00 | 85 | 1005.4 |
| 20260507053138 | 50 | 264 | 3.0 | 7.0 | 0.00 | 0.00 | 0.00 | 85 | 1005.4 |
| 20260507052636 | 50 | 294 | 3.0 | 4.0 | 0.00 | 0.00 | 0.00 | 86 | 1005.5 |
| 20260507052132 | 50 | 259 | 3.0 | 3.0 | 0.00 | 0.00 | 0.00 | 86 | 1005.9 |
| 20260507051630 | 50 | 183 | 1.0 | 4.0 | 0.00 | 0.00 | 0.00 | 86 | 1005.7 |
| 20260507051126 | 50 | 307 | 4.0 | 7.0 | 0.00 | 0.00 | 0.00 | 87 | 1005.7 |
| 20260507050623 | 50 | 295 | 3.0 | 6.0 | 0.00 | 0.00 | 0.00 | 87 | 1005.9 |
| 20260507050120 | 50 | 298 | 2.0 | 3.0 | 0.00 | 0.00 | 0.00 | 87 | 1005.4 |
| 20260507045617 | 50 | 240 | 2.0 | 3.0 | 0.00 | 0.00 | 0.00 | 87 | 1005.2 |
| 20260507045114 | 50 | 199 | 4.0 | 7.0 | 0.00 | 0.00 | 0.00 | 86 | 1005.3 |
| 20260507044610 | 50 | 319 | 3.0 | 4.0 | 0.00 | 0.00 | 0.00 | 87 | 1005.3 |
| 20260507044108 | 51 | 252 | 3.0 | 4.0 | 0.00 | 0.00 | 0.00 | 88 | 1005.6 |
| 20260507043603 | 51 | 109 | 0.0 | 2.0 | 0.00 | 0.00 | 0.00 | 88 | 1005.4 |
| 20260507043100 | 51 | 269 | 6.0 | 8.0 | 0.00 | 0.00 | 0.00 | 88 | 1005.7 |
| 20260507042556 | 51 | 70 | 1.0 | 3.0 | 0.00 | 0.00 | 0.00 | 89 | 1005.9 |
| 20260507042052 | 51 | 312 | 2.0 | 7.0 | 0.00 | 0.00 | 0.00 | 90 | 1006.0 |
| 20260507041549 | 51 | 107 | 1.0 | 2.0 | 0.00 | 0.00 | 0.00 | 90 | 1005.7 |
| 20260507041046 | 51 | 141 | 0.0 | 1.0 | 0.00 | 0.00 | 0.00 | 90 | 1005.6 |
| 20260507040542 | 51 | 271 | 3.0 | 4.0 | 0.00 | 0.00 | 0.00 | 90 | 1005.3 |
| 20260507040039 | 51 | 266 | 3.0 | 4.0 | 0.00 | 0.20 | 0.20 | 90 | 1005.5 |
| 20260507035535 | 52 | 76 | 1.0 | 3.0 | 0.00 | 0.20 | 0.20 | 90 | 1005.4 |
| 20260507035031 | 52 | 242 | 3.0 | 4.0 | 0.00 | 0.20 | 0.20 | 90 | 1005.4 |
| 20260507034528 | 52 | 117 | 0.0 | 2.0 | 0.00 | 0.20 | 0.20 | 90 | 1005.5 |
| 20260507034026 | 52 | 69 | 1.0 | 4.0 | 0.00 | 0.20 | 0.20 | 91 | 1005.2 |
| 20260507033524 | 52 | 282 | 3.0 | 4.0 | 0.00 | 0.20 | 0.20 | 91 | 1005.2 |
| 20260507033021 | 53 | 330 | 3.0 | 6.0 | 0.00 | 0.20 | 0.20 | 92 | 1005.3 |
| 20260507032518 | 53 | 323 | 4.0 | 6.0 | 0.00 | 0.20 | 0.20 | 92 | 1005.2 |
| 20260507032014 | 53 | 38 | 1.0 | 2.0 | 0.00 | 0.20 | 0.20 | 92 | 1005.2 |
| 20260507031510 | 54 | 126 | 1.0 | 3.0 | 0.00 | 0.20 | 0.20 | 92 | 1005.1 |
| 20260507031008 | 54 | 307 | 2.0 | 4.0 | 0.05 | 0.20 | 0.20 | 91 | 1004.8 |
| 20260507030504 | 55 | 273 | 4.0 | 7.0 | 0.05 | 0.20 | 0.20 | 91 | 1004.7 |
| 20260507030002 | 56 | 274 | 9.0 | 10.0 | 0.07 | 0.19 | 0.19 | 91 | 1005.0 |
| 20260507025458 | 56 | 45 | 1.0 | 4.0 | 0.00 | 0.18 | 0.18 | 91 | 1004.9 |
| 20260507024956 | 56 | 324 | 3.0 | 3.0 | 0.00 | 0.18 | 0.18 | 92 | 1005.1 |
| 20260507024453 | 57 | 304 | 6.0 | 9.0 | 0.00 | 0.18 | 0.18 | 92 | 1005.1 |
| 20260507023949 | 57 | 75 | 1.0 | 4.0 | 0.05 | 0.18 | 0.18 | 93 | 1004.7 |
| 20260507023446 | 57 | 302 | 5.0 | 7.0 | 0.05 | 0.18 | 0.18 | 93 | 1004.6 |
| 20260507022943 | 58 | 10 | 2.0 | 4.0 | 0.00 | 0.17 | 0.17 | 94 | 1004.5 |
| 20260507022441 | 58 | 295 | 3.0 | 4.0 | 0.00 | 0.17 | 0.17 | 94 | 1004.4 |
| 20260507021936 | 59 | 66 | 1.0 | 2.0 | 0.00 | 0.17 | 0.17 | 94 | 1004.1 |
| 20260507021431 | 59 | 302 | 2.0 | 3.0 | 0.00 | 0.17 | 0.17 | 95 | 1003.9 |
| 20260507020929 | 59 | 337 | 2.0 | 3.0 | 0.00 | 0.17 | 0.17 | 95 | 1004.0 |
| 20260507020426 | 59 | 260 | 2.0 | 4.0 | 0.00 | 0.17 | 0.17 | 95 | 1004.0 |
| 20260507015923 | 59 | 145 | 2.0 | 4.0 | 0.00 | 0.17 | 0.17 | 94 | 1003.7 |
| 20260507015421 | 59 | 112 | 0.0 | 2.0 | 0.00 | 0.17 | 0.17 | 94 | 1003.9 |
| 20260507014918 | 59 | 155 | 0.0 | 1.0 | 0.00 | 0.17 | 0.17 | 94 | 1003.7 |
| 20260507014414 | 59 | 164 | 1.0 | 3.0 | 0.00 | 0.17 | 0.17 | 94 | 1003.6 |
| 20260507013910 | 59 | 199 | 1.0 | 3.0 | 0.00 | 0.17 | 0.17 | 94 | 1003.7 |
| 20260507013408 | 59 | 43 | 2.0 | 3.0 | 0.00 | 0.17 | 0.17 | 94 | 1003.8 |
| 20260507012905 | 59 | 99 | 2.0 | 3.0 | 0.00 | 0.17 | 0.17 | 94 | 1003.6 |
| 20260507012401 | 59 | 207 | 0.0 | 2.0 | 0.00 | 0.17 | 0.17 | 94 | 1003.9 |
| 20260507011859 | 59 | 213 | 1.0 | 3.0 | 0.00 | 0.17 | 0.17 | 94 | 1003.6 |
| 20260507011355 | 59 | 164 | 0.0 | 1.0 | 0.00 | 0.17 | 0.17 | 94 | 1003.8 |
| 20260507010855 | 59 | 186 | 1.0 | 3.0 | 0.00 | 0.17 | 0.17 | 94 | 1003.6 |
| 20260507010351 | 59 | 172 | 0.0 | 1.0 | 0.00 | 0.17 | 0.17 | 94 | 1003.8 |
| 20260507005848 | 59 | 134 | 0.0 | 2.0 | 0.00 | 0.17 | 0.17 | 94 | 1003.7 |
| 20260507005345 | 59 | 188 | 1.0 | 2.0 | 0.00 | 0.17 | 0.17 | 94 | 1003.8 |
| 20260507004842 | 59 | 194 | 3.0 | 4.0 | 0.00 | 0.17 | 0.17 | 94 | 1003.7 |
| 20260507004339 | 59 | 116 | 1.0 | 2.0 | 0.00 | 0.17 | 0.17 | 94 | 1003.7 |
| 20260507003836 | 59 | 141 | 0.0 | 1.0 | 0.00 | 0.17 | 0.17 | 94 | 1003.5 |
| 20260507003331 | 59 | 77 | 2.0 | 3.0 | 0.00 | 0.17 | 0.17 | 94 | 1003.5 |
| 20260507002826 | 59 | 124 | 0.0 | 1.0 | 0.00 | 0.17 | 0.17 | 94 | 1003.6 |
| 20260507002323 | 59 | 181 | 1.0 | 3.0 | 0.00 | 0.17 | 0.17 | 94 | 1003.6 |
| 20260507001820 | 59 | 225 | 1.0 | 3.0 | 0.00 | 0.17 | 0.17 | 94 | 1003.5 |
| 20260507001317 | 59 | 120 | 0.0 | 2.0 | 0.00 | 0.17 | 0.17 | 94 | 1003.5 |
| 20260507000813 | 59 | 59 | 1.0 | 1.0 | 0.00 | 0.17 | 0.17 | 94 | 1003.3 |
| 20260507000309 | 59 | 153 | 4.0 | 6.0 | 0.00 | 0.17 | 0.17 | 94 | 1003.2 |
| 20260506235806 | 59 | 210 | 4.0 | 7.0 | 0.00 | 0.17 | 0.17 | 94 | 1003.2 |
| 20260506235306 | 59 | 129 | 0.0 | 6.0 | 0.00 | 0.17 | 0.17 | 94 | 1002.9 |
| 20260506234759 | 59 | 144 | 1.0 | 6.0 | 0.00 | 0.17 | 0.17 | 94 | 1003.2 |
| 20260506234256 | 59 | 170 | 3.0 | 3.0 | 0.00 | 0.17 | 0.17 | 94 | 1003.3 |
| 20260506233754 | 59 | 218 | 3.0 | 4.0 | 0.00 | 0.17 | 0.17 | 94 | 1003.2 |
| 20260506233250 | 60 | 187 | 1.0 | 6.0 | 0.00 | 0.17 | 0.17 | 94 | 1003.2 |
| 20260506232747 | 59 | 162 | 3.0 | 4.0 | 0.00 | 0.17 | 0.17 | 94 | 1003.3 |
| 20260506232241 | 60 | 203 | 4.0 | 7.0 | 0.00 | 0.17 | 0.17 | 93 | 1003.4 |
| 20260506231739 | 60 | 234 | 6.0 | 8.0 | 0.00 | 0.17 | 0.17 | 93 | 1003.4 |
| 20260506231238 | 60 | 143 | 1.0 | 3.0 | 0.00 | 0.17 | 0.17 | 93 | 1003.3 |
| 20260506230734 | 60 | 173 | 0.0 | 4.0 | 0.00 | 0.17 | 0.17 | 93 | 1003.3 |
| 20260506230231 | 60 | 133 | 1.0 | 2.0 | 0.00 | 0.17 | 0.17 | 93 | 1003.4 |
| 20260506225727 | 60 | 157 | 1.0 | 3.0 | 0.00 | 0.17 | 0.17 | 93 | 1003.5 |
| 20260506225225 | 60 | 218 | 2.0 | 3.0 | 0.00 | 0.17 | 0.17 | 93 | 1003.7 |
| 20260506224721 | 60 | 166 | 1.0 | 4.0 | 0.00 | 0.17 | 0.17 | 93 | 1003.5 |
| 20260506224218 | 60 | 173 | 1.0 | 6.0 | 0.00 | 0.17 | 0.17 | 93 | 1003.4 |
| 20260506223714 | 60 | 142 | 0.0 | 4.0 | 0.00 | 0.17 | 0.17 | 93 | 1003.7 |
| 20260506223210 | 60 | 169 | 1.0 | 6.0 | 0.00 | 0.17 | 0.17 | 93 | 1003.5 |
| 20260506222707 | 60 | 217 | 1.0 | 3.0 | 0.00 | 0.17 | 0.17 | 93 | 1003.5 |
| 20260506222202 | 60 | 170 | 4.0 | 7.0 | 0.00 | 0.17 | 0.17 | 93 | 1003.6 |
| 20260506221701 | 60 | 48 | 2.0 | 6.0 | 0.00 | 0.17 | 0.17 | 93 | 1003.6 |
| 20260506221159 | 60 | 116 | 2.0 | 4.0 | 0.00 | 0.17 | 0.17 | 93 | 1003.7 |
| 20260506220655 | 60 | 115 | 1.0 | 7.0 | 0.00 | 0.17 | 0.17 | 93 | 1003.9 |
| 20260506220150 | 60 | 188 | 3.0 | 4.0 | 0.00 | 0.17 | 0.17 | 94 | 1003.8 |
| 20260506215647 | 60 | 118 | 2.0 | 6.0 | 0.07 | 0.17 | 0.17 | 93 | 1003.8 |
| 20260506215142 | 60 | 176 | 3.0 | 4.0 | 0.07 | 0.17 | 0.17 | 93 | 1003.7 |
| 20260506214639 | 60 | 115 | 1.0 | 4.0 | 0.00 | 0.16 | 0.16 | 93 | 1003.9 |
| 20260506214137 | 60 | 150 | 2.0 | 3.0 | 0.00 | 0.16 | 0.16 | 93 | 1003.9 |
| 20260506213635 | 60 | 125 | 4.0 | 9.0 | 0.00 | 0.16 | 0.16 | 93 | 1003.8 |
| 20260506213132 | 60 | 202 | 6.0 | 7.0 | 0.00 | 0.16 | 0.16 | 93 | 1003.9 |
| 20260506212629 | 60 | 94 | 2.0 | 3.0 | 0.00 | 0.16 | 0.16 | 93 | 1003.9 |
| 20260506212124 | 60 | 194 | 2.0 | 6.0 | 0.05 | 0.16 | 0.16 | 92 | 1003.8 |
| 20260506211620 | 60 | 82 | 2.0 | 7.0 | 0.05 | 0.16 | 0.16 | 92 | 1003.9 |
| 20260506211117 | 60 | 156 | 2.0 | 4.0 | 0.07 | 0.15 | 0.15 | 92 | 1004.1 |
| 20260506210614 | 61 | 209 | 2.0 | 10.0 | 0.07 | 0.15 | 0.15 | 92 | 1004.0 |
| 20260506210110 | 61 | 202 | 5.0 | 10.0 | 0.00 | 0.14 | 0.14 | 92 | 1004.2 |
| 20260506205607 | 61 | 65 | 1.0 | 3.0 | 0.00 | 0.14 | 0.14 | 92 | 1004.1 |
| 20260506205102 | 61 | 170 | 5.0 | 7.0 | 0.00 | 0.14 | 0.14 | 92 | 1004.2 |
| 20260506204600 | 61 | 176 | 2.0 | 6.0 | 0.00 | 0.14 | 0.14 | 92 | 1004.1 |
| 20260506204057 | 61 | 216 | 1.0 | 8.0 | 0.05 | 0.14 | 0.14 | 91 | 1004.4 |
| 20260506203555 | 61 | 129 | 0.0 | 4.0 | 0.05 | 0.14 | 0.14 | 91 | 1004.3 |
| 20260506203051 | 61 | 93 | 3.0 | 6.0 | 0.00 | 0.13 | 0.13 | 91 | 1004.2 |
| 20260506202549 | 62 | 198 | 4.0 | 6.0 | 0.00 | 0.13 | 0.13 | 91 | 1004.3 |
| 20260506202045 | 62 | 130 | 2.0 | 2.0 | 0.00 | 0.13 | 0.13 | 92 | 1004.3 |
| 20260506201543 | 62 | 187 | 2.0 | 4.0 | 0.00 | 0.13 | 0.13 | 91 | 1004.2 |
| 20260506201040 | 62 | 214 | 2.0 | 4.0 | 0.00 | 0.13 | 0.13 | 91 | 1004.4 |
| 20260506200536 | 62 | 152 | 2.0 | 3.0 | 0.07 | 0.13 | 0.13 | 91 | 1004.3 |
| 20260506200033 | 62 | 121 | 1.0 | 3.0 | 0.12 | 0.13 | 0.13 | 90 | 1004.5 |
| 20260506195529 | 62 | 146 | 0.0 | 2.0 | 0.05 | 0.12 | 0.12 | 90 | 1004.5 |
| 20260506195026 | 62 | 178 | 0.0 | 1.0 | 0.00 | 0.11 | 0.11 | 89 | 1004.7 |
| 20260506194524 | 62 | 259 | 1.0 | 3.0 | 0.00 | 0.11 | 0.11 | 89 | 1004.6 |
| 20260506194020 | 62 | 223 | 4.0 | 7.0 | 0.00 | 0.11 | 0.11 | 89 | 1004.6 |
| 20260506193517 | 62 | 143 | 1.0 | 3.0 | 0.00 | 0.11 | 0.11 | 89 | 1004.6 |
| 20260506193014 | 62 | 144 | 0.0 | 3.0 | 0.00 | 0.11 | 0.11 | 90 | 1004.4 |
| 20260506192511 | 62 | 199 | 3.0 | 4.0 | 0.00 | 0.11 | 0.11 | 90 | 1004.4 |
| 20260506192007 | 62 | 178 | 0.0 | 1.0 | 0.00 | 0.11 | 0.11 | 91 | 1004.4 |
| 20260506191504 | 62 | 105 | 0.0 | 2.0 | 0.00 | 0.11 | 0.11 | 91 | 1004.2 |
| 20260506191000 | 62 | 170 | 0.0 | 1.0 | 0.00 | 0.11 | 0.11 | 90 | 1004.2 |
| 20260506190457 | 62 | 84 | 0.0 | 1.0 | 0.00 | 0.11 | 0.11 | 90 | 1004.6 |
| 20260506185954 | 62 | 139 | 0.0 | 1.0 | 0.07 | 0.11 | 0.11 | 89 | 1004.5 |
| 20260506185451 | 62 | 112 | 0.0 | 0.0 | 0.07 | 0.11 | 0.11 | 89 | 1004.5 |
| 20260506184948 | 62 | 106 | 0.0 | 1.0 | 0.07 | 0.10 | 0.10 | 89 | 1004.7 |
| 20260506184445 | 62 | 165 | 0.0 | 4.0 | 0.07 | 0.10 | 0.10 | 88 | 1004.7 |
| 20260506183942 | 62 | 95 | 0.0 | 0.0 | 0.05 | 0.09 | 0.09 | 88 | 1005.0 |
| 20260506183437 | 63 | 172 | 2.0 | 3.0 | 0.07 | 0.08 | 0.08 | 87 | 1005.1 |
| 20260506182935 | 63 | 128 | 1.0 | 2.0 | 0.12 | 0.08 | 0.08 | 87 | 1005.1 |
| 20260506182432 | 63 | 148 | 0.0 | 1.0 | 0.05 | 0.07 | 0.07 | 86 | 1005.1 |
| 20260506181929 | 63 | 125 | 0.0 | 0.0 | 0.07 | 0.06 | 0.06 | 86 | 1005.4 |
| 20260506181427 | 63 | 159 | 0.0 | 1.0 | 0.12 | 0.06 | 0.06 | 84 | 1005.4 |
| 20260506180924 | 64 | 117 | 1.0 | 2.0 | 0.12 | 0.05 | 0.05 | 83 | 1005.4 |
| 20260506180420 | 64 | 295 | 1.0 | 2.0 | 0.12 | 0.04 | 0.04 | 81 | 1005.4 |
| 20260506175917 | 64 | 130 | 1.0 | 1.0 | 0.12 | 0.03 | 0.03 | 79 | 1005.5 |
| 20260506175414 | 65 | 302 | 1.0 | 2.0 | 0.07 | 0.02 | 0.02 | 76 | 1005.6 |
| 20260506174910 | 66 | 148 | 1.0 | 4.0 | 0.05 | 0.01 | 0.01 | 74 | 1005.7 |
| 20260506174408 | 68 | 262 | 2.0 | 8.0 | 0.00 | 0.00 | 0.00 | 69 | 1005.7 |
| 20260506173905 | 68 | 125 | 1.0 | 6.0 | 0.00 | 0.00 | 0.00 | 66 | 1005.5 |
| 20260506173402 | 69 | 138 | 2.0 | 14.0 | 0.00 | 0.00 | 0.00 | 62 | 1005.2 |
| 20260506172859 | 70 | 6 | 2.0 | 6.0 | 0.00 | 0.00 | 0.00 | 61 | 1005.3 |
| 20260506172355 | 70 | 260 | 2.0 | 6.0 | 0.00 | 0.00 | 0.00 | 61 | 1005.1 |
| 20260506171853 | 71 | 93 | 3.0 | 4.0 | 0.00 | 0.00 | 0.00 | 59 | 1005.0 |
| 20260506171350 | 71 | 78 | 1.0 | 8.0 | 0.00 | 0.00 | 0.00 | 58 | 1005.0 |
| 20260506170847 | 71 | 76 | 1.0 | 4.0 | 0.00 | 0.00 | 0.00 | 59 | 1005.1 |
| 20260506170343 | 71 | 89 | 2.0 | 4.0 | 0.00 | 0.00 | 0.00 | 59 | 1004.9 |
| 20260506165837 | 70 | 207 | 2.0 | 3.0 | 0.00 | 0.00 | 0.00 | 61 | 1005.1 |
| 20260506165334 | 70 | 155 | 1.0 | 3.0 | 0.00 | 0.00 | 0.00 | 61 | 1005.3 |
| 20260506164830 | 70 | 237 | 6.0 | 8.0 | 0.00 | 0.00 | 0.00 | 60 | 1005.2 |
| 20260506164327 | 71 | 202 | 7.0 | 10.0 | 0.00 | 0.00 | 0.00 | 59 | 1005.4 |
| 20260506163825 | 70 | 160 | 1.0 | 3.0 | 0.00 | 0.00 | 0.00 | 60 | 1005.3 |
| 20260506163319 | 71 | 182 | 6.0 | 9.0 | 0.00 | 0.00 | 0.00 | 60 | 1005.4 |
| 20260506162815 | 70 | 134 | 1.0 | 8.0 | 0.00 | 0.00 | 0.00 | 60 | 1005.4 |
| 20260506162313 | 70 | 118 | 0.0 | 2.0 | 0.00 | 0.00 | 0.00 | 61 | 1005.5 |
| 20260506161805 | 70 | 209 | 2.0 | 4.0 | 0.00 | 0.00 | 0.00 | 61 | 1005.5 |
| 20260506161302 | 71 | 166 | 3.0 | 8.0 | 0.00 | 0.00 | 0.00 | 60 | 1005.6 |
| 20260506160759 | 70 | 186 | 1.0 | 7.0 | 0.00 | 0.00 | 0.00 | 62 | 1006.0 |
| 20260506160256 | 70 | 89 | 2.0 | 9.0 | 0.00 | 0.00 | 0.00 | 61 | 1006.1 |
| 20260506155755 | 70 | 121 | 6.0 | 9.0 | 0.00 | 0.00 | 0.00 | 62 | 1006.3 |
| 20260506155251 | 69 | 121 | 4.0 | 7.0 | 0.00 | 0.00 | 0.00 | 62 | 1006.5 |
| 20260506153358 | 69 | 92 | 0.0 | 4.0 | 0.00 | 0.00 | 0.00 | 64 | 1006.7 |
| 20260506152855 | 69 | 160 | 1.0 | 8.0 | 0.00 | 0.00 | 0.00 | 64 | 1006.8 |
| 20260506152352 | 69 | 48 | 2.0 | 6.0 | 0.00 | 0.00 | 0.00 | 64 | 1006.9 |
| 20260506151850 | 69 | 120 | 1.0 | 8.0 | 0.00 | 0.00 | 0.00 | 65 | 1006.9 |
| 20260506151347 | 69 | 207 | 3.0 | 7.0 | 0.00 | 0.00 | 0.00 | 64 | 1007.0 |
| 20260506150844 | 69 | 237 | 3.0 | 6.0 | 0.00 | 0.00 | 0.00 | 65 | 1007.1 |
| 20260506150341 | 69 | 189 | 1.0 | 9.0 | 0.00 | 0.00 | 0.00 | 65 | 1007.0 |
| 20260506145837 | 69 | 135 | 2.0 | 3.0 | 0.00 | 0.00 | 0.00 | 66 | 1006.9 |
| 20260506145334 | 68 | 200 | 3.0 | 3.0 | 0.00 | 0.00 | 0.00 | 66 | 1006.7 |
| 20260506144832 | 68 | 205 | 2.0 | 3.0 | 0.00 | 0.00 | 0.00 | 67 | 1007.0 |
| 20260506144328 | 68 | 181 | 5.0 | 9.0 | 0.00 | 0.00 | 0.00 | 67 | 1007.0 |
| 20260506143826 | 68 | 136 | 2.0 | 6.0 | 0.00 | 0.00 | 0.00 | 66 | 1006.9 |
| 20260506143323 | 68 | 162 | 2.0 | 6.0 | 0.00 | 0.00 | 0.00 | 66 | 1006.9 |
| 20260506142821 | 68 | 161 | 2.0 | 6.0 | 0.00 | 0.00 | 0.00 | 67 | 1006.8 |
| 20260506142319 | 67 | 125 | 1.0 | 3.0 | 0.00 | 0.00 | 0.00 | 68 | 1006.7 |
| 20260506141817 | 67 | 197 | 2.0 | 7.0 | 0.00 | 0.00 | 0.00 | 68 | 1006.8 |
| 20260506141315 | 67 | 125 | 3.0 | 7.0 | 0.00 | 0.00 | 0.00 | 68 | 1006.8 |
| 20260506140813 | 67 | 153 | 4.0 | 8.0 | 0.00 | 0.00 | 0.00 | 68 | 1006.7 |
| 20260506140309 | 67 | 140 | 1.0 | 3.0 | 0.00 | 0.00 | 0.00 | 68 | 1006.7 |
| 20260506135806 | 67 | 158 | 2.0 | 6.0 | 0.00 | 0.00 | 0.00 | 68 | 1006.6 |
| 20260506135305 | 66 | 144 | 1.0 | 7.0 | 0.00 | 0.00 | 0.00 | 69 | 1006.6 |
| 20260506134759 | 66 | 98 | 2.0 | 6.0 | 0.00 | 0.00 | 0.00 | 70 | 1006.8 |
| 20260506134255 | 65 | 225 | 3.0 | 4.0 | 0.00 | 0.00 | 0.00 | 71 | 1006.8 |
| 20260506133753 | 65 | 117 | 2.0 | 10.0 | 0.00 | 0.00 | 0.00 | 71 | 1007.2 |
| 20260506133249 | 65 | 208 | 4.0 | 8.0 | 0.00 | 0.00 | 0.00 | 71 | 1007.1 |
| 20260506132746 | 65 | 100 | 2.0 | 4.0 | 0.00 | 0.00 | 0.00 | 71 | 1006.9 |
| 20260506132244 | 65 | 227 | 5.0 | 6.0 | 0.00 | 0.00 | 0.00 | 71 | 1007.3 |
| 20260506131741 | 65 | 126 | 2.0 | 6.0 | 0.00 | 0.00 | 0.00 | 72 | 1007.0 |
| 20260506131237 | 64 | 196 | 2.0 | 4.0 | 0.00 | 0.00 | 0.00 | 72 | 1007.0 |
| 20260506130734 | 64 | 146 | 1.0 | 3.0 | 0.00 | 0.00 | 0.00 | 72 | 1007.1 |
| 20260506130231 | 64 | 97 | 1.0 | 4.0 | 0.00 | 0.00 | 0.00 | 72 | 1007.1 |
| 20260506125729 | 64 | 144 | 1.0 | 8.0 | 0.00 | 0.00 | 0.00 | 73 | 1007.1 |
| 20260506125227 | 64 | 175 | 4.0 | 6.0 | 0.00 | 0.00 | 0.00 | 72 | 1007.2 |
| 20260506124725 | 64 | 289 | 2.0 | 6.0 | 0.00 | 0.00 | 0.00 | 72 | 1007.1 |
| 20260506124222 | 64 | 176 | 3.0 | 4.0 | 0.00 | 0.00 | 0.00 | 72 | 1007.2 |
| 20260506123719 | 64 | 152 | 3.0 | 4.0 | 0.00 | 0.00 | 0.00 | 73 | 1007.3 |
| 20260506123218 | 63 | 212 | 2.0 | 8.0 | 0.00 | 0.00 | 0.00 | 73 | 1007.1 |
| 20260506122715 | 63 | 121 | 1.0 | 2.0 | 0.00 | 0.00 | 0.00 | 74 | 1007.2 |
| 20260506122212 | 63 | 202 | 2.0 | 4.0 | 0.00 | 0.00 | 0.00 | 74 | 1007.1 |
| 20260506121710 | 63 | 191 | 4.0 | 6.0 | 0.00 | 0.00 | 0.00 | 74 | 1007.1 |
| 20260506121206 | 63 | 155 | 2.0 | 3.0 | 0.00 | 0.00 | 0.00 | 74 | 1007.3 |
| 20260506120704 | 63 | 201 | 2.0 | 8.0 | 0.00 | 0.00 | 0.00 | 74 | 1007.5 |
| 20260506120201 | 63 | 199 | 1.0 | 6.0 | 0.00 | 0.00 | 0.00 | 74 | 1007.5 |
| 20260506115659 | 63 | 212 | 5.0 | 6.0 | 0.00 | 0.00 | 0.00 | 74 | 1007.5 |
| 20260506115157 | 62 | 132 | 1.0 | 2.0 | 0.00 | 0.00 | 0.00 | 75 | 1007.4 |
| 20260506114654 | 62 | 145 | 4.0 | 6.0 | 0.00 | 0.00 | 0.00 | 75 | 1007.7 |
| 20260506114152 | 62 | 53 | 1.0 | 10.0 | 0.00 | 0.00 | 0.00 | 76 | 1007.8 |
| 20260506113650 | 62 | 182 | 4.0 | 6.0 | 0.00 | 0.00 | 0.00 | 75 | 1007.8 |
| 20260506113147 | 61 | 144 | 1.0 | 3.0 | 0.00 | 0.00 | 0.00 | 75 | 1007.7 |
| 20260506112643 | 61 | 150 | 4.0 | 6.0 | 0.00 | 0.00 | 0.00 | 75 | 1007.7 |
| 20260506112141 | 61 | 157 | 0.0 | 1.0 | 0.00 | 0.00 | 0.00 | 76 | 1007.9 |
| 20260506111639 | 61 | 125 | 2.0 | 6.0 | 0.00 | 0.00 | 0.00 | 75 | 1007.8 |
| 20260506111136 | 61 | 138 | 0.0 | 1.0 | 0.00 | 0.00 | 0.00 | 75 | 1007.8 |
| 20260506110633 | 61 | 164 | 4.0 | 4.0 | 0.00 | 0.00 | 0.00 | 76 | 1007.9 |
| 20260506110131 | 61 | 142 | 2.0 | 4.0 | 0.00 | 0.00 | 0.00 | 76 | 1007.7 |
| 20260506105627 | 61 | 158 | 1.0 | 2.0 | 0.00 | 0.00 | 0.00 | 77 | 1007.8 |
| 20260506105124 | 60 | 191 | 6.0 | 8.0 | 0.00 | 0.00 | 0.00 | 77 | 1007.7 |
| 20260506104622 | 60 | 153 | 1.0 | 2.0 | 0.00 | 0.00 | 0.00 | 77 | 1008.0 |
| 20260506104119 | 60 | 205 | 2.0 | 3.0 | 0.00 | 0.00 | 0.00 | 77 | 1007.8 |
| 20260506103617 | 60 | 154 | 0.0 | 3.0 | 0.00 | 0.00 | 0.00 | 77 | 1007.8 |
| 20260506103113 | 60 | 88 | 1.0 | 4.0 | 0.00 | 0.00 | 0.00 | 77 | 1007.7 |
| 20260506102612 | 60 | 126 | 0.0 | 3.0 | 0.00 | 0.00 | 0.00 | 77 | 1007.4 |
| 20260506102109 | 60 | 181 | 1.0 | 3.0 | 0.00 | 0.00 | 0.00 | 77 | 1007.6 |
| 20260506101605 | 60 | 153 | 0.0 | 2.0 | 0.00 | 0.00 | 0.00 | 77 | 1007.6 |
| 20260506101102 | 60 | 110 | 1.0 | 3.0 | 0.00 | 0.00 | 0.00 | 76 | 1007.5 |
| 20260506100601 | 60 | 127 | 1.0 | 2.0 | 0.00 | 0.00 | 0.00 | 77 | 1007.7 |
| 20260506100058 | 60 | 123 | 2.0 | 4.0 | 0.00 | 0.00 | 0.00 | 77 | 1007.6 |
| 20260506095557 | 60 | 106 | 1.0 | 4.0 | 0.00 | 0.00 | 0.00 | 77 | 1007.8 |
| 20260506095053 | 60 | 142 | 1.0 | 1.0 | 0.00 | 0.00 | 0.00 | 76 | 1007.9 |
| 20260506094551 | 60 | 121 | 0.0 | 3.0 | 0.00 | 0.00 | 0.00 | 76 | 1007.7 |
| 20260506094048 | 60 | 203 | 3.0 | 4.0 | 0.00 | 0.00 | 0.00 | 76 | 1007.7 |